Wind_Speed
13 14 13 12 10 8 7 7 8 8 10 14 17 16 13 12 12 11 10 14 13 10 8 9 12 10 12 13 12 11 11 12 12 10 10 8 13 14 12 15 16 16 17
12 13 14 13 14 11 5 4 8 8 10 19 15 9 11 13 15 17 13 15 13 13 12 11 11 12 13 14 13 13 12 12 13 14 14 13 11 13 16 17 18 20 21
12 16 17 15 16 15 12 10 11 10 10 11 9 11 12 13 14 19 19 18 17 17 17 16 17 16 15 16 16 17 16 16 16 17 19 19 18 18 19 20 21 21 23
14 15 18 18 18 17 16 13 12 13 13 12 12 13 13 14 17 20 20 19 18 18 20 18 19 20 19 22 21 21 21 20 22 22 22 23 22 24 24 23 24 26 27
15 16 17 18 18 19 18 18 16 16 15 14 13 14 15 16 18 19 19 19 18 19 19 19 19 20 21 21 22 24 24 23 24 24 25 26 27 26 27 27 27 31 27
16 16 16 12 23 20 19 21 19 19 16 17 18 17 17 18 16 18 20 18 18 19 19 19 20 21 20 22 22 22 22 22 24 24 23 25 27 28 31 30 27 27 26
14 16 15 16 17 24 22 22 23 20 18 19 19 19 19 17 16 18 18 17 19 20 21 21 20 21 22 23 24 24 24 24 23 22 22 25 25 29 31 34 31 27 27
14 13 15 16 16 22 25 25 25 24 23 22 22 22 21 19 17 19 21 24 24 25 25 24 23 25 21 20 21 25 23 22 21 20 21 22 22 24 24 20 22 24 28
17 15 15 14 14 18 22 26 27 26 25 25 24 23 22 21 21 21 22 26 23 27 26 28 27 30 29 27 19 15 17 18 18 19 22 23 23 23 22 21 23 24 25
22 20 15 13 13 17 16 19 21 25 28 28 26 25 22 22 24 26 27 26 26 26 20 17 16 20 24 23 19 18 18 19 19 21 22 23 23 23 22 22 23 26 27
27 23 20 17 13 15 16 18 20 20 26 25 25 25 21 23 20 23 28 25 24 16 10 6 8 9 9 14 16 18 20 21 21 20 18 18 18 19 21 22 24 24 23
31 28 25 19 15 15 16 17 15 18 21 25 25 25 23 25 26 27 25 19 16 11 9 8 10 11 12 15 19 21 21 19 18 17 17 17 17 17 16 17 19 24 27
36 33 30 23 19 18 18 16 14 15 19 24 25 22 23 21 21 20 19 14 13 12 12 12 15 16 17 18 19 18 17 17 18 16 14 14 15 16 19 22 23 24 26
41 38 33 29 24 21 21 17 15 15 17 23 22 29 20 16 15 14 13 12 12 14 15 16 17 15 16 16 17 17 16 14 14 14 16 18 19 21 23 23 22 23 25
43 42 37 34 30 26 24 20 18 18 21 24 24 26 19 16 15 19 17 16 17 17 17 15 15 15 16 17 16 15 15 17 19 20 20 21 21 19 19 22 23 26 28
47 46 40 39 34 30 25 24 18 18 16 18 25 28 22 21 19 18 16 17 17 17 16 15 14 14 12 11 14 15 17 17 19 19 17 17 16 18 21 26 29 30 30
51 48 46 44 39 33 29 28 25 21 20 21 23 23 24 22 20 19 18 19 20 19 17 16 14 12 12 12 13 13 13 13 14 16 16 18 21 23 25 28 30 30 30
60 53 51 48 48 36 35 34 32 30 28 28 28 26 23 23 22 21 21 21 20 20 19 18 15 16 16 14 13 15 17 19 21 21 22 23 24 27 25 28 30 30 30
63 61 59 59 51 43 41 38 37 35 33 33 31 26 24 24 23 22 22 22 21 21 21 20 20 20 20 19 19 21 22 25 25 25 26 28 28 28 27 28 27 28 30
63 68 64 55 48 37 48 41 46 41 38 34 33 27 26 24 23 23 23 22 21 21 23 23 23 23 23 23 22 24 27 29 28 29 29 27 26 27 27 27 28 26 29
47 48 47 62 53 49 44 41 43 44 40 36 36 32 29 26 24 24 23 21 19 22 25 26 25 27 27 25 27 29 31 32 29 28 28 28 27 26 26 28 28 28 29
35 41 48 44 22 6 48 39 30 33 37 40 33 32 28 28 26 24 23 24 25 24 26 26 27 28 29 30 30 31 32 30 27 24 26 28 28 27 28 29 29 28 29
24 25 29 35 10 7 13 23 36 41 37 36 33 32 30 28 26 25 25 28 28 27 26 27 29 30 30 29 29 30 30 28 26 24 25 27 28 29 30 30 30 31 32
18 21 17 15 13 11 19 35 50 32 31 31 29 31 31 30 29 29 29 32 33 30 30 30 30 32 32 30 29 31 30 30 30 27 26 28 30 31 31 31 33 33 34
24 19 16 21 12 4 20 28 26 37 40 33 28 33 30 30 31 31 33 35 36 35 34 33 34 34 34 33 33 33 32 32 32 31 29 30 32 31 31 34 35 35 35
17 17 17 17 21 17 10 5 5 16 25 29 33 35 37 36 37 41 42 42 41 39 38 36 35 35 33 36 40 38 34 32 32 33 33 34 34 35 35 36 37 37 37
Wind_Direction
275 265 250 243 240 248 276 177 219 215 211 217 209 207 220 222 235 250 252 233 235 238 230 221 234 230 227 245 254 254 269 282 282 272 277 256 266 283 279 282 284 285 289
277 270 248 243 236 228 230 202 245 240 224 254 203 199 227 238 236 240 239 246 251 253 248 243 245 243 241 247 257 259 262 261 267 276 282 287 274 274 280 280 282 286 288
279 264 248 245 243 231 216 207 231 240 223 229 219 218 224 230 234 233 237 240 245 251 256 256 254 255 256 254 253 258 262 265 270 275 278 279 280 278 272 275 280 283 283
289 264 258 251 247 236 229 216 221 240 245 231 226 227 233 235 232 235 240 243 246 253 258 257 258 257 256 260 260 262 265 269 271 273 273 275 279 278 278 278 280 277 270
290 274 259 254 246 243 233 225 220 225 231 239 239 238 238 235 237 241 243 248 254 252 254 259 259 258 262 261 262 262 265 267 272 273 276 278 277 278 279 279 276 278 277
287 279 268 267 252 241 234 227 219 221 222 226 226 229 232 236 242 242 246 251 255 259 260 259 260 257 261 260 259 260 260 263 265 269 273 276 279 280 278 276 275 277 288
281 276 281 270 248 236 233 228 225 225 223 230 233 236 237 239 243 248 253 256 258 259 261 264 266 266 262 260 260 260 261 261 264 272 279 282 289 293 291 279 275 277 279
278 279 283 278 260 239 238 237 234 231 232 236 240 242 245 246 247 247 251 249 251 258 256 254 257 258 259 257 267 267 252 260 266 273 282 289 295 301 305 292 273 278 283
272 277 277 282 282 248 244 237 236 238 242 248 251 252 253 251 245 245 251 255 261 266 267 257 253 255 261 260 268 273 261 266 270 278 286 290 293 294 294 294 288 289 289
258 265 270 278 277 284 263 246 243 245 246 251 255 258 256 247 254 251 246 261 269 264 255 255 255 243 244 255 257 258 265 272 278 281 284 287 291 296 300 298 296 293 293
245 256 259 274 273 280 273 268 259 253 250 248 247 252 254 253 260 260 261 263 259 232 223 203 220 216 225 241 259 266 273 278 279 283 290 293 296 296 297 300 297 300 300
239 249 251 261 267 259 266 268 271 257 248 240 246 246 248 256 270 269 260 247 218 212 211 218 243 256 255 259 266 270 274 278 283 284 284 288 292 297 301 301 301 301 301
234 240 245 247 252 251 255 262 262 263 246 246 237 242 253 261 265 250 229 201 207 218 228 242 256 265 269 271 271 274 279 278 277 281 290 294 299 303 307 309 309 307 309
235 232 232 241 244 247 247 248 255 256 254 242 242 242 233 219 212 196 199 208 226 240 254 264 265 266 268 267 270 271 271 275 281 287 291 300 302 306 311 312 313 312 312
235 235 232 237 239 243 241 238 242 247 253 235 227 214 199 209 213 212 217 230 239 250 252 256 263 261 263 267 269 275 280 285 290 294 297 298 301 302 303 308 311 311 310
231 236 233 238 239 238 237 237 236 237 218 217 217 204 199 215 226 233 243 249 253 253 253 255 256 258 264 275 280 283 284 284 286 292 291 290 293 300 308 312 312 312 309
229 230 233 228 230 233 224 225 227 216 211 192 187 190 206 225 235 246 242 245 251 251 253 250 246 253 262 265 276 287 291 292 289 286 286 290 294 299 299 301 303 304 306
228 231 230 227 227 218 216 220 223 217 214 205 208 213 216 225 234 238 242 249 254 250 250 246 248 253 261 271 281 289 291 287 283 284 284 288 295 298 292 295 299 295 297
230 233 235 220 218 209 213 214 219 219 217 214 214 215 222 231 236 238 244 249 250 246 245 250 259 268 267 271 278 283 286 291 294 291 287 285 288 287 286 291 295 294 294
235 241 253 254 222 226 205 210 210 213 215 216 220 217 224 230 236 240 247 251 255 252 249 253 261 265 267 273 282 290 297 298 295 291 282 278 279 279 287 291 294 295 295
248 256 260 258 261 238 209 209 194 203 214 217 221 221 225 230 231 236 242 243 246 254 256 259 263 267 273 279 284 289 300 302 295 289 281 280 282 284 286 291 291 292 292
259 259 261 276 249 325 204 196 217 212 215 218 220 226 224 231 234 238 239 244 244 245 249 258 266 269 276 283 290 296 302 298 293 290 289 287 286 289 292 293 292 291 291
256 271 277 265 253 306 227 226 195 208 218 226 219 225 226 233 234 241 248 252 252 256 260 263 267 273 278 285 294 302 304 299 296 297 301 300 297 297 295 292 289 290 292
235 242 253 267 281 266 243 235 228 222 227 228 225 230 233 237 240 247 253 257 257 258 262 266 269 271 275 282 291 296 300 299 294 294 298 300 298 296 292 289 291 292 293
218 231 249 263 280 84 206 219 192 192 221 233 222 233 234 245 251 257 262 265 267 268 268 270 273 274 279 287 293 294 295 295 289 289 292 293 293 289 287 285 286 290 292
213 222 240 261 297 293 303 326 253 236 232 227 232 231 239 240 250 256 262 266 269 267 267 267 269 276 282 288 290 291 291 291 289 289 292 292 291 288 286 287 290 291 293
Height
5869 5869 5869 5868 5868 5868 5872 5873 5875 5878 5882 5885 5887 5890 5896 5897 5898 5900 5902 5905 5909 5909 5910 5911 5913 5913 5915 5915 5916 5916 5915 5915 5916 5919 5919 5923 5923 5921 5922 5922 5923 5923 5923
5866 5866 5867 5867 5868 5869 5871 5872 5872 5878 5881 5881 5885 5886 5892 5896 5897 5899 5900 5902 5904 5906 5908 5909 5909 5910 5913 5914 5914 5914 5914 5915 5915 5915 5916 5917 5918 5918 5917 5918 5919 5920 5919
5864 5863 5864 5865 5866 5868 5871 5873 5871 5875 5878 5878 5880 5885 5889 5892 5893 5896 5897 5897 5900 5902 5904 5905 5906 5907 5909 5910 5911 5911 5911 5912 5913 5913 5913 5912 5913 5913 5914 5914 5914 5915 5914
5862 5862 5861 5863 5864 5866 5868 5870 5871 5872 5875 5879 5881 5883 5885 5886 5890 5893 5894 5895 5897 5897 5899 5901 5902 5903 5904 5906 5906 5908 5908 5909 5908 5909 5909 5908 5908 5908 5908 5909 5909 5906 5902
5859 5859 5859 5860 5861 5863 5864 5867 5869 5871 5872 5874 5876 5878 5881 5884 5886 5888 5890 5892 5892 5893 5894 5895 5896 5898 5899 5901 5901 5902 5903 5904 5904 5904 5904 5903 5902 5901 5901 5902 5901 5896 5893
5855 5855 5856 5855 5855 5858 5861 5863 5865 5867 5871 5873 5874 5875 5878 5879 5882 5883 5885 5886 5887 5888 5889 5889 5889 5891 5892 5893 5894 5895 5896 5897 5897 5897 5897 5896 5894 5894 5893 5893 5893 5891 5890
5851 5851 5851 5850 5850 5853 5857 5859 5861 5863 5866 5867 5869 5870 5872 5874 5876 5877 5878 5880 5881 5882 5884 5884 5885 5885 5886 5887 5888 5889 5889 5890 5891 5891 5891 5889 5888 5885 5884 5882 5883 5885 5886
5848 5847 5847 5846 5847 5848 5851 5854 5856 5859 5860 5862 5864 5865 5867 5869 5870 5873 5873 5873 5875 5876 5876 5877 5879 5880 5881 5882 5882 5882 5882 5883 5883 5884 5884 5882 5881 5878 5875 5873 5874 5876 5876
5843 5843 5843 5843 5843 5844 5846 5848 5850 5852 5856 5858 5860 5861 5863 5865 5864 5865 5867 5867 5868 5868 5867 5869 5871 5873 5874 5875 5877 5877 5877 5877 5878 5878 5877 5876 5875 5874 5872 5870 5869 5869 5868
5838 5838 5838 5839 5840 5840 5843 5844 5845 5846 5849 5852 5854 5856 5857 5859 5859 5860 5860 5861 5862 5861 5860 5860 5862 5864 5867 5870 5872 5873 5873 5874 5874 5873 5871 5871 5869 5868 5866 5864 5863 5861 5859
5831 5832 5833 5834 5836 5837 5838 5839 5839 5841 5843 5845 5847 5848 5850 5852 5853 5855 5854 5855 5856 5857 5857 5858 5858 5860 5863 5866 5868 5869 5869 5868 5867 5867 5866 5865 5864 5862 5860 5858 5856 5855 5854
5823 5826 5828 5829 5830 5832 5832 5832 5833 5834 5835 5838 5841 5842 5843 5845 5846 5848 5849 5849 5851 5854 5856 5857 5857 5859 5860 5861 5863 5863 5864 5863 5862 5861 5860 5859 5858 5857 5856 5855 5854 5851 5848
5813 5816 5821 5823 5823 5825 5825 5826 5828 5828 5829 5831 5834 5837 5838 5839 5840 5842 5844 5846 5849 5852 5853 5854 5855 5855 5856 5857 5858 5858 5857 5857 5857 5856 5855 5854 5853 5852 5850 5848 5846 5843 5840
5803 5806 5808 5814 5816 5817 5818 5820 5821 5822 5823 5825 5827 5830 5832 5835 5838 5840 5842 5843 5846 5848 5849 5850 5851 5851 5852 5852 5853 5853 5852 5852 5852 5851 5849 5848 5847 5845 5844 5840 5838 5836 5833
5793 5797 5801 5806 5809 5810 5811 5812 5814 5815 5817 5818 5821 5825 5828 5831 5836 5838 5839 5841 5843 5843 5843 5844 5845 5847 5847 5848 5848 5849 5848 5848 5846 5845 5844 5842 5840 5839 5837 5835 5832 5829 5826
5782 5787 5791 5796 5799 5802 5804 5806 5807 5808 5808 5810 5814 5820 5824 5826 5830 5834 5835 5836 5837 5839 5840 5840 5841 5843 5844 5844 5844 5844 5843 5842 5841 5839 5838 5836 5835 5833 5830 5827 5824 5821 5818
5770 5774 5779 5783 5786 5792 5794 5797 5800 5801 5803 5806 5810 5813 5818 5822 5825 5828 5830 5832 5833 5834 5835 5836 5837 5838 5839 5840 5839 5838 5837 5836 5835 5833 5831 5830 5828 5826 5824 5821 5818 5813 5810
5758 5760 5763 5768 5773 5778 5785 5790 5795 5798 5800 5803 5809 5812 5813 5816 5820 5822 5824 5826 5826 5828 5830 5831 5832 5833 5834 5834 5834 5833 5832 5831 5829 5827 5825 5823 5821 5820 5818 5815 5810 5807 5803
5747 5749 5744 5751 5760 5759 5768 5778 5787 5792 5796 5799 5803 5806 5808 5811 5814 5816 5818 5820 5820 5822 5824 5825 5826 5827 5828 5828 5827 5826 5825 5824 5822 5820 5817 5815 5813 5812 5810 5807 5802 5799 5796
5741 5746 5747 5740 5732 5731 5744 5763 5769 5780 5787 5794 5795 5798 5801 5804 5807 5810 5812 5812 5813 5816 5818 5819 5820 5821 5822 5821 5820 5820 5819 5817 5814 5812 5809 5807 5805 5802 5800 5797 5794 5790 5787
5740 5742 5740 5737 5728 5733 5720 5745 5724 5767 5775 5785 5787 5790 5793 5797 5800 5803 5805 5806 5807 5809 5811 5812 5814 5814 5813 5813 5813 5813 5811 5809 5806 5804 5802 5800 5797 5793 5791 5788 5784 5781 5777
5732 5734 5735 5732 5725 5701 5725 5740 5747 5756 5768 5777 5782 5781 5785 5789 5793 5796 5797 5799 5800 5801 5802 5804 5805 5806 5806 5806 5805 5804 5802 5800 5797 5794 5792 5790 5788 5785 5782 5779 5776 5772 5769
5729 5726 5725 5726 5726 5729 5733 5740 5742 5754 5759 5768 5773 5773 5777 5781 5784 5788 5790 5792 5792 5794 5794 5795 5796 5798 5799 5798 5796 5794 5792 5791 5788 5786 5784 5781 5779 5776 5773 5769 5766 5763 5759
5726 5728 5727 5726 5732 5734 5731 5734 5736 5743 5751 5757 5762 5766 5771 5775 5777 5780 5782 5783 5784 5784 5786 5788 5788 5788 5788 5787 5786 5783 5782 5780 5778 5776 5774 5771 5768 5765 5762 5759 5756 5753 5749
5723 5725 5725 5726 5728 5730 5730 5731 5739 5742 5745 5748 5759 5759 5763 5766 5770 5772 5774 5776 5777 5777 5779 5780 5780 5779 5778 5777 5776 5774 5771 5769 5768 5765 5763 5759 5757 5753 5750 5748 5745 5742 5738
5717 5722 5723 5723 5718 5720 5723 5723 5725 5729 5732 5738 5746 5752 5754 5757 5760 5762 5764 5766 5766 5768 5769 5770 5770 5768 5769 5766 5762 5762 5761 5759 5757 5755 5752 5749 5746 5743 5740 5737 5735 5731 5727